[[{"header":{"parameterUnit":"m.s-1","parameterCategory":1,"la1":30.2991,"la2":30.254,"lo1":-89.0895,"lo2":-89.0444,"dx":0.0017,"dy":0.0017,"nx":28,"ny":28,"refTime":"2022-12-16T09:00:00:Z","depth":0,"parameterNumber":2,"parameterNumberName":"U-component_of_WINDS"},"data":[0,0,0,0,0,0,0,0,0,0,0,0,0,0,0,0,0,0,0,0,0,0,0,0,0,0,0,0,0,0,0,0,0,0,0,0,0,0,0,0,0,0,0,0,0,0,0,0,0,0,0,0,0,0,0,0,0,0,1.786,1.786,0,1.7932,1.7933,1.7934,1.7901,1.7899,1.7897,1.7895,1.797,1.7973,1.7977,0,0,0,0,0,0,0,0,0,0,0,0,0,1.7694,1.7697,1.786,1.7861,1.7861,1.7932,1.7933,1.7934,1.7901,1.7899,1.7897,1.7895,1.7968,1.7973,1.7977,0,0,0,0,0,0,0,0,0,0,0,0,0,1.7766,1.7698,1.7859,1.7854,1.7854,1.7932,1.7933,1.7934,1.7901,1.7899,1.7896,1.7894,1.7967,1.7972,1.7978,1.8066,0,0,1.7994,1.7997,0,0,0,0,0,0,0,0,1.7762,1.7772,1.7854,1.7854,1.7854,1.7905,1.7902,1.7978,1.7902,1.7883,1.7895,1.7892,1.795,1.7957,1.7976,1.8069,1.8072,1.7995,1.7998,1.8001,1.8002,0,0,0,0,0,0,0,1.7757,1.7769,1.7888,1.7855,1.7855,1.7848,1.7855,1.7916,1.7931,1.7885,1.7883,1.7892,1.795,1.7971,1.7978,1.8073,1.7995,1.8,1.8003,1.8005,1.8243,1.8246,0,0,0,0,0,0,1.7752,1.7765,1.7886,1.789,1.7801,1.7853,1.7861,1.7891,1.793,1.7934,1.7894,1.789,1.7963,1.7971,1.798,1.8087,1.8001,1.8006,1.8009,1.824,1.8244,1.8247,0,0,0,0,0,0,1.7749,1.7763,1.7883,1.7827,1.7842,1.7858,1.7893,1.7894,1.7915,1.7937,1.794,1.7913,1.7961,1.7973,1.8045,1.8089,1.8008,1.8013,1.8237,1.8241,1.8246,1.83,0,0,0,0,0,0,1.7744,1.7762,1.7796,1.7828,1.7845,1.7946,1.7896,1.7897,1.7925,1.792,1.7956,1.7959,1.796,1.8037,1.805,1.8095,1.8017,1.8233,1.8239,1.8244,1.8294,1.8305,1.8315,0,0,0,0,0,1.7738,1.7808,1.7797,1.7812,1.7887,1.7949,1.7958,1.7958,1.7928,1.7962,1.7977,1.7958,1.8082,1.8045,1.806,1.8106,1.823,1.8237,1.8244,1.8289,1.8303,1.8315,0,0,0,0,0,0,1.778,1.7812,1.7801,1.7883,1.7913,1.7943,1.7986,1.7973,1.8013,1.8007,1.8005,1.8014,1.8089,1.8105,1.8063,1.8194,1.8151,1.8162,1.8181,1.8194,1.8205,1.8199,1.8022,0,0,0,0,0,1.7798,1.7846,1.7871,1.7941,1.7957,1.7969,1.7996,1.7993,1.8025,1.8038,1.8057,1.8089,1.8135,1.8166,1.8209,1.8296,1.8304,1.8336,1.8346,1.8355,1.8364,1.8412,1.8427,1.827,1.827,1.8269,0,0,1.7837,1.7861,1.7891,1.795,1.7973,1.8023,1.798,1.8034,1.8071,1.8046,1.8116,1.8131,1.8167,1.8247,1.8283,1.8263,1.8409,1.8364,1.837,1.8375,1.8421,1.8436,1.8449,1.8274,1.8273,1.8273,0,0,1.7934,1.7956,1.8017,1.8042,1.8078,1.8085,1.81,1.8132,1.8142,1.8212,1.8194,1.8238,1.8318,1.8344,1.8368,1.8475,1.846,1.849,1.8545,1.8592,1.8605,1.8616,1.8655,1.8669,1.8498,1.8499,1.8499,0,1.7977,1.8051,1.805,1.8106,1.8133,1.8113,1.8175,1.8199,1.8248,1.8267,1.8243,1.8343,1.8365,1.8452,1.8478,1.8498,1.8515,1.8486,1.8603,1.8614,1.8624,1.8662,1.8676,1.8502,1.8502,1.8501,1.8501,0,1.8104,1.8155,1.82,1.8248,1.828,1.8339,1.8347,1.838,1.8375,1.8385,1.8457,1.8484,1.8533,1.8553,1.8548,1.864,1.8626,1.8603,1.856,1.8643,1.8678,1.8692,1.8507,1.8506,1.8505,1.8504,0,0,1.8228,1.8275,1.8291,1.8313,1.8352,1.8392,1.8451,1.8499,1.8527,1.8562,1.8611,1.8679,1.8658,1.8685,1.8684,1.8725,1.881,1.8697,1.8698,1.8717,1.8913,1.893,1.8947,1.88,1.8802,1.8805,1.891,0,1.8327,1.8429,1.843,1.8524,1.8573,1.8555,1.8606,1.8635,1.8647,1.869,1.8702,1.8751,1.8719,1.8736,1.8776,1.8791,1.8849,1.8783,1.8846,1.8848,1.8838,1.8965,1.8983,1.9081,1.8924,1.8926,1.8928,0,1.8457,1.8496,1.8595,1.8628,1.8648,1.8694,1.8739,1.878,1.8814,1.8819,1.885,1.8842,1.8902,1.8858,1.8941,1.8896,1.8922,1.8934,1.8937,1.8943,1.8893,1.8975,1.9113,1.9128,1.8949,1.8947,1.8946,0,1.8539,1.8616,1.8685,1.8705,1.8745,1.8777,1.8795,1.8826,1.8856,1.8895,1.8914,1.896,1.8985,1.9021,1.9026,1.8993,1.911,1.9066,1.9117,1.9117,1.9142,1.9141,1.9287,1.9159,1.9158,1.9158,1.9158,0,1.865,1.8711,1.8723,1.8765,1.8834,1.8835,1.8903,1.8918,1.8946,1.8992,1.8979,1.9023,1.9027,1.9072,1.9076,1.9145,1.9156,1.9163,1.9163,1.9164,1.9164,1.9181,1.9175,1.9162,1.9161,1.916,1.916,0,1.8752,1.8762,1.8837,1.8869,1.8878,1.8928,1.8955,1.8996,1.9007,1.9065,1.9079,1.9095,1.9148,1.9157,1.9218,1.9221,1.9304,1.9297,1.9292,1.9291,1.9342,1.9338,1.9505,1.9528,1.9384,1.9386,1.9387,0,1.8823,1.887,1.8907,1.8937,1.8957,1.9005,1.9035,1.9038,1.907,1.9112,1.9149,1.92,1.9241,1.9325,1.9343,1.939,1.9385,1.9441,1.9392,1.9392,1.9386,1.9384,1.9389,1.945,1.9451,1.9453,1.9454,0,1.8947,1.895,1.8994,1.904,1.9076,1.9112,1.9146,1.9171,1.9179,1.9216,1.9269,1.9301,1.9364,1.9415,1.9462,1.9481,1.947,1.9469,1.9483,1.9485,1.948,1.9484,1.9318,1.9465,1.9464,1.9463,1.9462,1.9462,1.9036,1.9077,1.911,1.916,1.9186,1.9218,1.9259,1.9275,1.9319,1.9371,1.937,1.9429,1.9463,1.9525,1.9547,1.9594,1.9576,1.9597,1.9602,1.9607,1.9612,1.9473,1.9602,1.9602,1.9602,1.9601,1.9601,0,1.916,1.9181,1.9226,1.9275,1.9314,1.9299,1.9337,1.937,1.9422,1.9454,1.9495,1.9557,1.9607,1.9629,1.9678,1.9711,1.9707,1.9724,1.9722,1.9727,1.9625,1.9608,1.9727,1.9727,1.9727,1.9727,1.9727,1.9727,1.923,1.9299,1.9306,1.9388,1.9408,1.9466,1.9489,1.9519,1.9545,1.9614,1.9656,1.967,1.9698,1.975,1.9795,1.98,1.9819,1.9839,1.9842,1.9747,1.9734,1.9722,1.9706,1.9843,1.9843,1.994,1.9941,1.9942]},{"header":{"parameterUnit":"m.s-1","parameterCategory":1,"la1":30.2991,"la2":30.254,"lo1":-89.0895,"lo2":-89.0444,"dx":0.0017,"dy":0.0017,"nx":28,"ny":28,"refTime":"2022-12-16T09:00:00:Z","depth":0,"parameterNumber":3,"parameterNumberName":"V-component_of_WINDS"},"data":[0,0,0,0,0,0,0,0,0,0,0,0,0,0,0,0,0,0,0,0,0,0,0,0,0,0,0,0,0,0,0,0,0,0,0,0,0,0,0,0,0,0,0,0,0,0,0,0,0,0,0,0,0,0,0,0,0,0,-2.0804,-2.0805,0,-2.0899,-2.09,-2.0901,-2.0905,-2.0904,-2.0903,-2.0902,-2.1001,-2.1005,-2.1008,0,0,0,0,0,0,0,0,0,0,0,0,0,-2.0627,-2.063,-2.0804,-2.0805,-2.0806,-2.0899,-2.09,-2.0901,-2.0905,-2.0904,-2.0902,-2.0901,-2.1,-2.1004,-2.1009,0,0,0,0,0,0,0,0,0,0,0,0,0,-2.0711,-2.0631,-2.0803,-2.0819,-2.0821,-2.0899,-2.09,-2.0902,-2.0906,-2.0904,-2.0902,-2.0901,-2.0998,-2.1004,-2.1009,-2.1078,0,0,-2.1026,-2.1029,0,0,0,0,0,0,0,0,-2.0706,-2.0718,-2.0816,-2.0818,-2.0821,-2.0888,-2.0874,-2.0961,-2.0906,-2.0874,-2.0902,-2.09,-2.0965,-2.0973,-2.0995,-2.1083,-2.1087,-2.1027,-2.103,-2.1033,-2.1034,0,0,0,0,0,0,0,-2.0701,-2.0714,-2.0841,-2.0817,-2.082,-2.0822,-2.0832,-2.0891,-2.0928,-2.0876,-2.0877,-2.0888,-2.0966,-2.099,-2.0997,-2.1088,-2.1027,-2.1032,-2.1035,-2.1037,-2.1237,-2.1239,0,0,0,0,0,0,-2.0691,-2.0709,-2.0838,-2.0844,-2.0758,-2.0827,-2.0838,-2.0868,-2.0927,-2.0935,-2.0889,-2.0888,-2.0981,-2.0991,-2.1001,-2.1085,-2.1033,-2.1038,-2.1041,-2.1235,-2.1238,-2.124,0,0,0,0,0,0,-2.0688,-2.0703,-2.0835,-2.0777,-2.0794,-2.0831,-2.0866,-2.0871,-2.0895,-2.0937,-2.0944,-2.0906,-2.098,-2.0993,-2.1059,-2.1089,-2.104,-2.1045,-2.1233,-2.1236,-2.1239,-2.1254,0,0,0,0,0,0,-2.0683,-2.0702,-2.0727,-2.0777,-2.0797,-2.089,-2.0868,-2.0874,-2.0904,-2.0903,-2.0955,-2.0962,-2.098,-2.105,-2.1064,-2.1095,-2.105,-2.1231,-2.1234,-2.1238,-2.1251,-2.1257,-2.1262,0,0,0,0,0,-2.0676,-2.0728,-2.0729,-2.0744,-2.083,-2.0892,-2.0903,-2.0922,-2.0906,-2.0933,-2.096,-2.096,-2.1083,-2.1057,-2.1073,-2.1106,-2.1229,-2.1233,-2.1238,-2.1248,-2.1256,-2.1262,0,0,0,0,0,0,-2.0682,-2.0735,-2.0736,-2.0806,-2.0844,-2.0892,-2.0927,-2.0929,-2.0974,-2.0971,-2.0993,-2.1005,-2.107,-2.1095,-2.1065,-2.1176,-2.1154,-2.1162,-2.1157,-2.1164,-2.117,-2.1163,-2.1054,0,0,0,0,0,-2.0691,-2.0736,-2.0781,-2.0838,-2.0857,-2.0889,-2.0916,-2.0928,-2.0969,-2.0985,-2.1017,-2.1058,-2.1105,-2.1136,-2.1183,-2.1255,-2.1266,-2.1285,-2.1291,-2.1295,-2.1302,-2.1342,-2.1351,-2.1255,-2.1254,-2.1254,0,0,-2.0711,-2.0745,-2.0773,-2.084,-2.0871,-2.0918,-2.0902,-2.0953,-2.0988,-2.0993,-2.1057,-2.1082,-2.1128,-2.1197,-2.123,-2.122,-2.1331,-2.1301,-2.1304,-2.1308,-2.1348,-2.1357,-2.1365,-2.1258,-2.1257,-2.1257,0,0,-2.077,-2.0801,-2.0852,-2.0884,-2.0931,-2.0951,-2.0964,-2.1012,-2.1028,-2.1092,-2.1097,-2.114,-2.1222,-2.1255,-2.1282,-2.1355,-2.1356,-2.1369,-2.1399,-2.1438,-2.1445,-2.1452,-2.1478,-2.1487,-2.1376,-2.1376,-2.1376,0,-2.0789,-2.0859,-2.0878,-2.0929,-2.0958,-2.0964,-2.1017,-2.1046,-2.1107,-2.1127,-2.1115,-2.1218,-2.125,-2.1327,-2.1345,-2.1367,-2.1382,-2.1363,-2.1443,-2.145,-2.1456,-2.1482,-2.1491,-2.1377,-2.1377,-2.1377,-2.1377,0,-2.088,-2.0929,-2.0965,-2.1022,-2.1055,-2.1107,-2.1134,-2.1166,-2.1174,-2.1196,-2.1262,-2.13,-2.1355,-2.1374,-2.1383,-2.1452,-2.1445,-2.1438,-2.1417,-2.1467,-2.1491,-2.15,-2.1379,-2.1378,-2.1378,-2.1378,0,0,-2.0946,-2.1013,-2.1025,-2.1051,-2.1104,-2.1142,-2.1194,-2.1247,-2.1274,-2.1315,-2.1359,-2.1428,-2.1422,-2.1453,-2.1466,-2.1501,-2.1556,-2.1489,-2.1491,-2.15,-2.1635,-2.164,-2.1651,-2.1557,-2.1559,-2.1561,-2.1631,0,-2.1011,-2.1102,-2.1121,-2.12,-2.1246,-2.1252,-2.1298,-2.1335,-2.1357,-2.14,-2.1424,-2.1473,-2.1461,-2.148,-2.1514,-2.1542,-2.1583,-2.1537,-2.1599,-2.1601,-2.1587,-2.1663,-2.1669,-2.1733,-2.1641,-2.1642,-2.1643,0,-2.11,-2.1143,-2.1226,-2.1273,-2.1292,-2.1332,-2.1382,-2.1423,-2.1466,-2.1479,-2.1514,-2.1524,-2.1578,-2.1555,-2.163,-2.1599,-2.1625,-2.1643,-2.1646,-2.1652,-2.1625,-2.1672,-2.1754,-2.1764,-2.1658,-2.1657,-2.1656,0,-2.1139,-2.1218,-2.1278,-2.13,-2.1356,-2.1384,-2.1409,-2.145,-2.148,-2.1524,-2.1544,-2.1594,-2.1621,-2.166,-2.1683,-2.1664,-2.1757,-2.1735,-2.1771,-2.177,-2.179,-2.1788,-2.1878,-2.1807,-2.1807,-2.1807,-2.1807,0,-2.121,-2.1261,-2.1296,-2.1333,-2.1391,-2.1412,-2.1469,-2.1493,-2.153,-2.1572,-2.1582,-2.1621,-2.1649,-2.1693,-2.1711,-2.1772,-2.1784,-2.1797,-2.1801,-2.1796,-2.1794,-2.1814,-2.181,-2.1809,-2.1809,-2.1808,-2.1808,0,-2.1264,-2.129,-2.1356,-2.1403,-2.1416,-2.1456,-2.1497,-2.1534,-2.1556,-2.161,-2.1624,-2.1659,-2.1711,-2.1738,-2.1803,-2.1815,-2.1883,-2.1885,-2.1868,-2.187,-2.1904,-2.19,-2.2009,-2.2024,-2.1943,-2.1944,-2.1945,0,-2.1308,-2.1347,-2.1398,-2.1427,-2.1452,-2.1498,-2.1529,-2.1552,-2.1584,-2.1636,-2.1666,-2.1719,-2.1762,-2.1845,-2.1877,-2.1927,-2.193,-2.1965,-2.1938,-2.1932,-2.1931,-2.1928,-2.1933,-2.197,-2.197,-2.1971,-2.1972,0,-2.1383,-2.1393,-2.1437,-2.1486,-2.1522,-2.1561,-2.16,-2.1624,-2.1653,-2.1688,-2.1741,-2.1775,-2.1841,-2.1894,-2.1946,-2.1972,-2.1977,-2.198,-2.1991,-2.1986,-2.1975,-2.1981,-2.1881,-2.1977,-2.1977,-2.1976,-2.1976,-2.1976,-2.1433,-2.1468,-2.1509,-2.1558,-2.159,-2.1626,-2.1662,-2.1689,-2.1734,-2.1789,-2.18,-2.1856,-2.1899,-2.197,-2.1997,-2.2042,-2.2035,-2.2051,-2.2055,-2.2058,-2.206,-2.1967,-2.2052,-2.2052,-2.2052,-2.2052,-2.2052,0,-2.1508,-2.1535,-2.158,-2.1633,-2.1672,-2.1672,-2.1715,-2.1748,-2.1797,-2.1836,-2.1878,-2.1939,-2.199,-2.2026,-2.2078,-2.2107,-2.2111,-2.212,-2.2118,-2.2124,-2.2063,-2.2049,-2.2116,-2.2116,-2.2116,-2.2116,-2.2116,-2.2116,-2.1552,-2.1611,-2.1627,-2.1702,-2.1729,-2.1784,-2.1809,-2.1842,-2.1874,-2.1941,-2.1983,-2.2006,-2.2044,-2.2099,-2.2146,-2.2155,-2.2174,-2.2183,-2.2192,-2.2135,-2.2128,-2.2122,-2.2108,-2.2187,-2.2187,-2.2249,-2.225,-2.225]}]]